This is the latest recevied weather packets stored in our database for station/object KB1YTR-1. If no packets are shown the sender has not sent any weather packets the latest 10 day(s).
| Time | Temp. | Humidity | Pressure | Rain* | Wind** | Luminosity | Snow |
|---|---|---|---|---|---|---|---|
| 1788237986 | 21.11° C | 75% | 1011.9 hPa | 0 mm | - | - | - |
| 1788237829 | 21.11° C | 75% | 1011.9 hPa | 0 mm | - | - | - |
| 1788237090 | 21.11° C | 75% | 1011.9 hPa | 0 mm | - | - | - |
| 1788236269 | 21.11° C | 75% | 1011.9 hPa | 0 mm | - | - | - |
| 1788235545 | 21.11° C | 75% | 1011.9 hPa | 0 mm | - | - | - |
| 1788234783 | 21.11° C | 75% | 1011.9 hPa | 0 mm | - | - | - |
| 1788233875 | 21.11° C | 75% | 1011.9 hPa | 0 mm | - | - | - |
| 1788233085 | 21.11° C | 75% | 1011.9 hPa | 0 mm | - | - | - |
| 1788232300 | 21.11° C | 75% | 1011.9 hPa | 0 mm | - | - | - |
| 1788231539 | 21.11° C | 75% | 1011.9 hPa | 0 mm | - | - | - |
| 1788230653 | 21.11° C | 75% | 1011.9 hPa | 0 mm | - | - | - |
| 1788229801 | 21.11° C | 75% | 1011.9 hPa | 0 mm | - | - | - |
| 1788229035 | 21.11° C | 75% | 1011.9 hPa | 0 mm | - | - | - |
| 1788228120 | 21.67° C | 73% | 1012 hPa | 0 mm | - | - | - |
| 1788227231 | 22.22° C | 70% | 1011.7 hPa | 0 mm | - | - | - |
| 1788226354 | 21.67° C | 73% | 1011.7 hPa | 0 mm | - | - | - |
| 1788225569 | 21.67° C | 74% | 1011.7 hPa | 0 mm | - | - | - |
| 1788224694 | 22.22° C | 74% | 1011.4 hPa | 0 mm | - | - | - |
| 1788223849 | 22.78° C | 75% | 1011.3 hPa | 0 mm | - | - | - |
| 1788223094 | 23.89° C | 71% | 1011.5 hPa | 0 mm | - | - | - |
| 1788223000 | 23.89° C | 71% | 1011.5 hPa | 0 mm | - | - | - |
| 1788222254 | 25° C | 69% | 1011.3 hPa | 0 mm | - | - | - |
| 1788221404 | 26.11° C | 64% | 1011.4 hPa | 0 mm | - | - | - |
| 1788220509 | 27.22° C | 60% | 1011.2 hPa | 0 mm | - | - | - |
| 1788219739 | 27.78° C | 60% | 1011.3 hPa | 0 mm | - | - | - |
* Rain latest hour (hover to see other rain measurements)
** Current wind speed in m/s (hover to see current wind gust speed)